Вернуться в каталог

COSMOS 1900 DEB

АктивенLEO
NORAD 43499·DEBRIS·🇷🇺 Russia

Запущен Dec 12, 1987 с Baikonur Cosmodrome

Loading…

Ближайшие Пролёты (ближайшие 24 часа)

TLE

СвежийSource: Space-Track

Эпоха: Sep 14, 2026, 03:39 UTC

1 43499U 87101D   26257.15234351  .00000336  00000-0  91221-4 0  9993
2 43499  66.0812  97.9943 0028403  18.0246 342.1862 14.60294112607732

Отслеживайте COSMOS 1900 DEB в реальном времени с AllMySat

Download on the App Store